This is the latest recevied weather packets stored in our database for station/object F6BIJ-13. If no packets are shown the sender has not sent any weather packets the latest 10 day(s).
| Time | Temp. | Humidity | Pressure | Rain* | Wind** | Luminosity | Snow |
|---|---|---|---|---|---|---|---|
| 1777681117 | 15° C | 56% | 1024.6 hPa | 0 mm | - | - | - |
| 1777680757 | 15° C | 51% | 1024.6 hPa | 0 mm | - | - | - |
| 1777680398 | 16.11° C | 52% | 1024.6 hPa | 0 mm | - | - | - |
| 1777680037 | 16.11° C | 48% | 1024.7 hPa | 0 mm | - | - | - |
| 1777679677 | 16.11° C | 47% | 1024.8 hPa | 0 mm | - | - | - |
| 1777679317 | 16.67° C | 49% | 1024.8 hPa | 0 mm | - | - | - |
| 1777678957 | 17.22° C | 48% | 1024.7 hPa | 0 mm | - | - | - |
| 1777678598 | 16.11° C | 48% | 1024.7 hPa | 0 mm | - | - | - |
| 1777678237 | 16.67° C | 49% | 1024.6 hPa | 0 mm | - | - | - |
| 1777677877 | 16.67° C | 49% | 1024.6 hPa | 0 mm | - | - | - |
| 1777677517 | 17.22° C | 50% | 1024.6 hPa | 0 mm | - | - | - |
| 1777677157 | 16.67° C | 49% | 1024.6 hPa | 0 mm | - | - | - |
| 1777676797 | 17.22° C | 49% | 1024.6 hPa | 0 mm | - | - | - |
| 1777676437 | 17.78° C | 50% | 1024.6 hPa | 0 mm | - | - | - |
| 1777676077 | 17.22° C | 51% | 1024.6 hPa | 0 mm | - | - | - |
| 1777675717 | 17.78° C | 52% | 1024.5 hPa | 0 mm | - | - | - |
| 1777675357 | 17.78° C | 53% | 1024.6 hPa | 0 mm | - | - | - |
| 1777674997 | 17.78° C | 54% | 1024.6 hPa | 0 mm | - | - | - |
| 1777674638 | 17.78° C | 54% | 1024.6 hPa | 0 mm | - | - | - |
| 1777674278 | 17.78° C | 58% | 1024.4 hPa | 0 mm | - | - | - |
| 1777673918 | 18.33° C | 58% | 1024.4 hPa | 0 mm | - | - | - |
| 1777673557 | 17.78° C | 58% | 1024.4 hPa | 0 mm | - | - | - |
| 1777673197 | 17.78° C | 59% | 1024.3 hPa | 0 mm | - | - | - |
| 1777672837 | 17.78° C | 59% | 1024.3 hPa | 0 mm | - | - | - |
| 1777672477 | 17.78° C | 58% | 1024.3 hPa | 0 mm | - | - | - |
* Rain latest 24 hours (hover to see other rain measurements)
** Current wind speed in m/s (hover to see current wind gust speed)